This demonstration page uses our WeatherBlox Daily Observations layout. Learn more.

Left ArrowRight Arrow

Hourly Observations for August 17, 2015

Temp ( °F °C ) Dew Point ( °F °C ) Humidity (%) Winds ( mph kmh ) Pressure ( in mb ) Visibility ( mi km ) Precip ( " mm )
12:51 am 00:51 Clear 83 28.3 56 13.3 40 40 SE 8 13 29.73 1007 10 16 0.00 0.00
1:51 am 01:51 Clear 80 26.7 57 13.9 45 45 E 7 11 29.73 1007 10 16 0.00 0.00
2:51 am 02:51 Clear 82 27.8 56 13.3 41 41 ESE 5 7 29.74 1007 10 16 0.00 0.00
3:51 am 03:51 Clear 83 28.3 58 14.4 43 43 E 10 17 29.76 1008 10 16 0.00 0.00
4:51 am 04:51 Clear 83 28.3 59 15 44 44 SE 3 6 29.77 1008 10 16 0.00 0.00
5:51 am 05:51 Sunny 82 27.8 77 25 85 85 Calm 29.95 1014 10 16 0.01 0.25
6:51 am 06:51 Sunny 82 27.8 60 15.6 47 47 Calm 29.81 1010 10 16 0.00 0.00
7:51 am 07:51 Sunny 87 30.6 61 16.1 42 42 NW 14 22 29.80 1009 10 16 0.00 0.00
8:51 am 08:51 Sunny 91 32.8 60 15.6 35 35 WNW 14 22 29.79 1009 10 16 0.00 0.00
9:51 am 09:51 Sunny 93 33.9 59 15 32 32 NW 14 22 29.78 1009 10 16 0.00 0.00
10:51 am 10:51 Sunny 96 35.6 58 14.4 28 28 WNW 18 30 29.77 1008 10 16 0.00 0.00
11:51 am 11:51 Sunny 100 37.8 58 14.4 25 25 WNW 23 37 29.74 1007 10 16 0.00 0.00
12:51 pm 12:51 Sunny 101 38.3 56 13.3 22 22 NW 21 33 29.71 1006 10 16 0.00 0.00
1:51 pm 13:51 Sunny 103 39.4 55 12.8 20 20 NW 21 33 29.68 1005 10 16 0.00 0.00
2:51 pm 14:51 Sunny 103 39.4 55 12.8 20 20 WNW 21 33 29.64 1004 10 16 0.00 0.00
3:51 pm 15:51 Sunny 104 40 52 11.1 18 18 WNW 20 31 29.60 1003 10 16 0.00 0.00
4:51 pm 16:51 Sunny 104 40 50 10 16 16 NW 22 35 29.59 1002 10 16 0.00 0.00
5:51 pm 17:51 Sunny 101 38.3 56 13.3 22 22 W 20 31 29.60 1002 10 16 0.00 0.00
6:51 pm 18:51 Sunny 97 36.1 55 12.8 24 24 WNW 20 31 29.61 1003 10 16 0.00 0.00
7:51 pm 19:51 Clear 93 33.9 56 13.3 29 29 WNW 20 31 29.64 1004 10 16 0.00 0.00
8:51 pm 20:51 Clear 91 32.8 56 13.3 31 31 NW 17 28 29.67 1005 10 16 0.00 0.00
9:51 pm 21:51 Clear 89 31.7 58 14.4 35 35 NW 16 26 29.69 1006 10 16 0.00 0.00
10:51 pm 22:51 Clear 88 31.1 58 14.4 36 36 NW 14 22 29.70 1006 10 16 0.00 0.00
11:51 pm 23:51 Clear 86 30 58 14.4 39 39 WNW 14 22 29.70 1006 10 16 0.00 0.00

Powered by AerisWeather